Simultaneous Nadir Overpasses (SNOs) Predictions

Prediction of SNOs between METOP-B and TERRA Satellite Orbit:

Table of predicted SNOs for the next 14.0 days since TLE Epoch: 8/17/2019
Index Date (METOP-B) Time (METOP-B) Lat,Lon (METOP-B) SZA (METOP-B ) Date (TERRA) Time (TERRA) Lat,Lon (TERRA) SZA (TERRA ) Distance(km) Time Diff (sec)
1 08/17/2019 12:01:25 81.31, 46.75 70.62 08/17/2019 12:02:03 81.31, 46.85 70.65 1.79 38
2 08/17/2019 12:52:04 -81.32,-145.34 109.30 08/17/2019 12:51:29 -81.33,-145.28 109.31 1.38 35
3 08/20/2019 07:35:46 81.31, 113.15 71.54 08/20/2019 07:36:17 81.30, 113.08 71.54 1.51 31
4 08/20/2019 08:26:25 -81.32, -78.90 108.37 08/20/2019 08:25:43 -81.32, -79.03 108.41 2.20 42
5 08/23/2019 03:10:08 81.31, 179.54 72.49 08/23/2019 03:10:31 81.31, 179.65 72.52 1.93 23
6 08/23/2019 04:00:47 -81.32, -12.47 107.42 08/23/2019 03:59:57 -81.32, -12.44 107.44 0.85 50
7 08/25/2019 22:44:29 81.31,-113.70 73.51 08/25/2019 22:44:45 81.31,-113.81 73.51 1.90 16
8 08/25/2019 23:35:10 -81.31, 53.55 106.49 08/25/2019 23:34:12 -81.31, 53.74 106.50 3.26 58
9 08/28/2019 18:18:50 81.31, -47.34 74.51 08/28/2019 18:18:58 81.32, -47.31 74.52 0.68 8




NCC Satellite Simultaneous Nadir Overpasses (SNOs) Prediction Service
